When you browse on this site, cookies collect data to enhance your experience and personalize the content and advertising you see.
Visit our Privacy Policy to learn more. By continuing to use the site, you agree to this use of cookies and data.
  • In Netherlands
  • List of Countries
  • For 7 days
  • Water Temperature
  • Weather Map
  • Weather Widgets
  • user-avatar
    Login

    Hourly Weather Kartyzhi

    Today, 13 December, Friday

    Time Temperature Precipitation Wind Pressure Humidity
    00:00 -2°C° 0 mm 6 mps 741 mmHg 94%
    01:00 -2°C° 0 mm 6 mps 741 mmHg 93%
    02:00 -1°C° 0 mm 5 mps 741 mmHg 91%
    03:00 -1°C° 0 mm 5 mps 740 mmHg 90%
    04:00 -1°C° 0 mm 5 mps 740 mmHg 89%
    05:00 -1°C° 0 mm 4 mps 739 mmHg 88%
    06:00 -2°C° 0 mm 4 mps 739 mmHg 91%
    07:00 -2°C° 0 mm 5 mps 739 mmHg 93%
    08:00 -2°C° 0 mm 5 mps 739 mmHg 95%
    09:00 -2°C° 0 mm 5 mps 738 mmHg 95%
    10:00 -2°C° 0 mm 5 mps 738 mmHg 95%
    11:00 -3°C° 0 mm 6 mps 738 mmHg 95%
    12:00 -3°C° 0 mm 6 mps 737 mmHg 94%
    13:00 -3°C° 0 mm 6 mps 737 mmHg 92%
    14:00 -3°C° 0 mm 6 mps 737 mmHg 87%
    15:00 -3°C° 0 mm 6 mps 736 mmHg 87%
    16:00 -3°C° 0 mm 6 mps 736 mmHg 87%
    17:00 -3°C° 0 mm 6 mps 736 mmHg 87%
    18:00 -3°C° 0 mm 6 mps 736 mmHg 86%
    19:00 -3°C° 0 mm 6 mps 736 mmHg 86%
    20:00 -3°C° 0 mm 7 mps 736 mmHg 85%
    21:00 -3°C° 0 mm 7 mps 736 mmHg 85%
    22:00 -3°C° 0 mm 7 mps 736 mmHg 84%
    23:00 -3°C° 0 mm 7 mps 736 mmHg 83%

    Tomorrow, 14 December, Saturday

    Time Temperature Precipitation Wind Pressure Humidity
    00:00 -3°C° 0 mm 7 mps 736 mmHg 83%
    01:00 -3°C° 0 mm 7 mps 736 mmHg 84%
    02:00 -3°C° 0 mm 7 mps 736 mmHg 84%
    03:00 -3°C° 0 mm 7 mps 736 mmHg 84%
    04:00 -3°C° 0 mm 7 mps 736 mmHg 85%
    05:00 -3°C° 0 mm 6 mps 736 mmHg 85%
    06:00 -3°C° 0 mm 6 mps 736 mmHg 85%
    07:00 -3°C° 0 mm 6 mps 736 mmHg 84%
    08:00 -2°C° 0 mm 5 mps 736 mmHg 84%
    09:00 -2°C° 0 mm 5 mps 736 mmHg 83%
    10:00 -3°C° 0 mm 6 mps 736 mmHg 82%
    11:00 -3°C° 0 mm 6 mps 736 mmHg 81%
    12:00 -2°C° 0 mm 6 mps 736 mmHg 82%
    13:00 -2°C° 0 mm 6 mps 736 mmHg 83%
    14:00 -2°C° 0 mm 6 mps 736 mmHg 84%
    15:00 -2°C° 0 mm 6 mps 736 mmHg 86%
    16:00 -1°C° 0 mm 5 mps 736 mmHg 87%
    17:00 -1°C° 0 mm 5 mps 736 mmHg 89%
    18:00 -1°C° 0 mm 5 mps 736 mmHg 90%
    19:00 -1°C° 0 mm 5 mps 735 mmHg 92%
    20:00 -1°C° 0 mm 5 mps 735 mmHg 93%
    21:00 -1°C° 0 mm 5 mps 735 mmHg 94%
    22:00 -1°C° 0 mm 5 mps 735 mmHg 94%
    23:00 -1°C° 0 mm 5 mps 734 mmHg 95%

    Day after tomorrow, 15 December, Sunday

    Time Temperature Precipitation Wind Pressure Humidity
    00:00 -1°C° 0 mm 5 mps 734 mmHg 95%
    01:00 0°C° 0 mm 5 mps 734 mmHg 95%
    02:00 0°C° 0 mm 5 mps 734 mmHg 95%
    03:00 0°C° 0.2 mm 5 mps 734 mmHg 95%
    04:00 0°C° 0.2 mm 5 mps 733 mmHg 95%
    05:00 +1°C° 0.2 mm 6 mps 732 mmHg 96%
    06:00 +1°C° 0.3 mm 5 mps 733 mmHg 96%
    07:00 +1°C° 0.3 mm 5 mps 733 mmHg 96%
    08:00 +1°C° 0.3 mm 5 mps 733 mmHg 96%
    09:00 +1°C° 0.3 mm 5 mps 733 mmHg 92%
    10:00 +1°C° 0.3 mm 5 mps 733 mmHg 88%
    11:00 +1°C° 0.3 mm 6 mps 734 mmHg 84%
    12:00 +1°C° 0 mm 5 mps 734 mmHg 83%
    13:00 +1°C° 0 mm 5 mps 735 mmHg 82%
    14:00 +1°C° 0 mm 5 mps 735 mmHg 80%
    15:00 0°C° 0 mm 4 mps 736 mmHg 82%
    16:00 0°C° 0 mm 4 mps 736 mmHg 84%
    17:00 -1°C° 0 mm 4 mps 737 mmHg 86%
    18:00 -1°C° 0 mm 4 mps 737 mmHg 88%
    19:00 -2°C° 0 mm 4 mps 737 mmHg 89%
    20:00 -2°C° 0 mm 4 mps 738 mmHg 90%
    21:00 -1°C° 0 mm 5 mps 737 mmHg 89%
    22:00 -1°C° 0 mm 5 mps 737 mmHg 89%
    23:00 -2°C° 0 mm 6 mps 737 mmHg 88%

    16 December, Monday

    Time Temperature Precipitation Wind Pressure Humidity
    00:00 -1°C° 0.1 mm 6 mps 737 mmHg 88%
    01:00 0°C° 0.1 mm 7 mps 736 mmHg 87%
    02:00 +1°C° 0.1 mm 8 mps 736 mmHg 87%
    03:00 0°C° 0 mm 8 mps 737 mmHg 85%
    04:00 0°C° 0 mm 7 mps 738 mmHg 84%
    05:00 +1°C° 0 mm 6 mps 738 mmHg 83%
    06:00 -1°C° 0 mm 6 mps 739 mmHg 83%
    07:00 -2°C° 0 mm 6 mps 739 mmHg 83%
    08:00 -1°C° 0 mm 5 mps 740 mmHg 83%
    09:00 -2°C° 0 mm 6 mps 740 mmHg 81%
    10:00 -1°C° 0 mm 6 mps 741 mmHg 79%
    11:00 -1°C° 0 mm 6 mps 741 mmHg 77%
    12:00 0°C° 0 mm 5 mps 742 mmHg 75%
    13:00 0°C° 0 mm 5 mps 742 mmHg 73%
    14:00 0°C° 0 mm 5 mps 742 mmHg 71%
    15:00 -1°C° 0 mm 4 mps 742 mmHg 75%
    16:00 -1°C° 0 mm 4 mps 743 mmHg 79%
    17:00 -2°C° 0 mm 4 mps 743 mmHg 83%
    18:00 -2°C° 0 mm 4 mps 743 mmHg 84%
    19:00 -1°C° 0 mm 3 mps 743 mmHg 85%
    20:00 -1°C° 0 mm 3 mps 744 mmHg 86%
    21:00 -1°C° 0 mm 3 mps 744 mmHg 87%
    22:00 -1°C° 0 mm 3 mps 744 mmHg 88%
    23:00 -1°C° 0 mm 2 mps 744 mmHg 89%

    17 December, Tuesday

    Time Temperature Precipitation Wind Pressure Humidity
    00:00 -1°C° 0 mm 2 mps 744 mmHg 90%
    01:00 -1°C° 0 mm 2 mps 744 mmHg 91%
    02:00 +1°C° 0 mm 2 mps 744 mmHg 92%
    03:00 +1°C° 0.1 mm 2 mps 744 mmHg 93%
    04:00 +1°C° 0.1 mm 2 mps 743 mmHg 94%
    05:00 +1°C° 0.1 mm 3 mps 743 mmHg 95%
    06:00 +1°C° 0 mm 3 mps 743 mmHg 93%
    07:00 0°C° 0 mm 4 mps 743 mmHg 92%
    08:00 0°C° 0 mm 4 mps 743 mmHg 90%
    09:00 0°C° 0 mm 4 mps 743 mmHg 89%
    10:00 +1°C° 0 mm 4 mps 743 mmHg 87%
    11:00 +1°C° 0 mm 5 mps 743 mmHg 86%
    12:00 +1°C° 0 mm 4 mps 742 mmHg 86%
    13:00 +1°C° 0 mm 4 mps 742 mmHg 85%
    14:00 +1°C° 0 mm 4 mps 742 mmHg 85%
    15:00 +1°C° 0 mm 4 mps 742 mmHg 86%
    16:00 +1°C° 0 mm 3 mps 742 mmHg 88%
    17:00 0°C° 0 mm 3 mps 742 mmHg 90%
    18:00 0°C° 0 mm 3 mps 742 mmHg 90%
    19:00 0°C° 0 mm 3 mps 742 mmHg 90%
    20:00 0°C° 0 mm 3 mps 742 mmHg 90%
    21:00 0°C° 0 mm 3 mps 742 mmHg 90%
    22:00 0°C° 0 mm 3 mps 742 mmHg 90%
    23:00 0°C° 0 mm 3 mps 742 mmHg 90%

    18 December, Wednesday

    Time Temperature Precipitation Wind Pressure Humidity
    00:00 0°C° 0 mm 3 mps 741 mmHg 90%
    01:00 0°C° 0 mm 3 mps 741 mmHg 90%
    02:00 0°C° 0 mm 3 mps 741 mmHg 91%
    03:00 0°C° 0 mm 3 mps 741 mmHg 91%
    04:00 0°C° 0 mm 3 mps 741 mmHg 91%
    05:00 +1°C° 0 mm 2 mps 741 mmHg 91%
    06:00 0°C° 0 mm 3 mps 740 mmHg 91%
    07:00 0°C° 0 mm 3 mps 740 mmHg 91%
    08:00 0°C° 0 mm 3 mps 740 mmHg 91%
    09:00 0°C° 0 mm 3 mps 740 mmHg 89%
    10:00 +1°C° 0 mm 3 mps 740 mmHg 87%
    11:00 +1°C° 0 mm 3 mps 740 mmHg 85%
    12:00 +1°C° 0 mm 3 mps 740 mmHg 85%
    13:00 +2°C° 0 mm 3 mps 739 mmHg 86%
    14:00 +2°C° 0 mm 3 mps 739 mmHg 86%
    15:00 +1°C° 0 mm 3 mps 739 mmHg 89%
    16:00 +1°C° 0 mm 3 mps 739 mmHg 91%
    17:00 +1°C° 0 mm 3 mps 739 mmHg 93%
    18:00 +1°C° 0 mm 3 mps 739 mmHg 94%
    19:00 +1°C° 0 mm 3 mps 738 mmHg 95%
    20:00 +1°C° 0 mm 3 mps 738 mmHg 95%
    21:00 +1°C° 0 mm 3 mps 738 mmHg 96%
    22:00 +1°C° 0 mm 3 mps 739 mmHg 96%
    23:00 +2°C° 0 mm 3 mps 739 mmHg 97%
    Show more